Fecha, hora, temperatura, viento dirección y velocidad, humedad y presión.

  • 11-04-2019 21:00:00 | 11.60°C | Noroeste |13.00 km/h | 82.00% | 1015.90 hPa
  • 11-04-2019 20:00:00 | 11.50°C | Noroeste |14.00 km/h | 85.00% | 1015.60 hPa
  • 11-04-2019 19:00:00 | 11.50°C | Noroeste |9.00 km/h | 88.00% | 1015.40 hPa
  • 11-04-2019 18:00:00 | 11.10°C | Oeste |9.00 km/h | 89.00% | 1015.30 hPa
  • 11-04-2019 17:00:00 | 11.20°C | Noroeste |16.00 km/h | 88.00% | 1015.10 hPa
  • 11-04-2019 16:00:00 | 10.80°C | Noroeste |19.00 km/h | 88.00% | 1015.30 hPa
  • 11-04-2019 15:00:00 | 11.70°C | Noroeste |19.00 km/h | 85.00% | 1015.40 hPa
  • 11-04-2019 14:00:00 | 11.60°C | Noroeste |19.00 km/h | 86.00% | 1015.20 hPa
  • 11-04-2019 13:00:00 | 10.90°C | Oeste |17.00 km/h | 84.00% | 1015.20 hPa
  • 11-04-2019 12:00:00 | 11.80°C | Oeste |20.00 km/h | 82.00% | 1015.10 hPa
  • 11-04-2019 11:00:00 | 11.30°C | Oeste |27.00 km/h | 82.00% | 1014.60 hPa
  • 11-04-2019 10:00:00 | 11.40°C | Noroeste |27.00 km/h | 82.00% | 1014.30 hPa
  • 11-04-2019 09:00:00 | 11.10°C | Noroeste |18.00 km/h | 83.00% | 1014.10 hPa
  • 11-04-2019 08:00:00 | 10.90°C | Noroeste |21.00 km/h | 83.00% | 1013.70 hPa
  • 11-04-2019 07:00:00 | 11.30°C | Noroeste |24.00 km/h | 82.00% | 1013.50 hPa
  • 11-04-2019 06:00:00 | 11.10°C | Noroeste |16.00 km/h | 83.00% | 1013.70 hPa
  • 11-04-2019 05:00:00 | 11.20°C | Noroeste |20.00 km/h | 82.00% | 1013.60 hPa
  • 11-04-2019 04:00:00 | 11.30°C | Noroeste |14.00 km/h | 81.00% | 1013.60 hPa
  • 11-04-2019 03:00:00 | 11.40°C | Noroeste |12.00 km/h | 81.00% | 1013.80 hPa
  • 11-04-2019 02:00:00 | 11.70°C | Norte |21.00 km/h | 83.00% | 1013.90 hPa
  • 11-04-2019 01:00:00 | 11.10°C | Noroeste |12.00 km/h | 84.00% | 1013.70 hPa
  • 11-04-2019 00:00:00 | 11.70°C | Oeste |18.00 km/h | 80.00% | 1013.70 hPa
  • 10-04-2019 23:00:00 | 11.80°C | Noroeste |20.00 km/h | 80.00% | 1013.70 hPa
  • 10-04-2019 22:00:00 | 11.50°C | Noroeste |19.00 km/h | 84.00% | 1013.30 hPa
    • diseño web asturias Información sobre el estado de las mareas, altura de la marejada, temperatura del agua y otros datos de Gijón en Asturias.

      Surf Gijón